Chincoteague Weather Center

Moon Phase Calendar



Online Cameras

 


      

Current Conditions in Onancock
10/6/2022 3:57:22 AM

62°F
Feels Like 62
Clouds
Humidity
84%
Pressure
29.97"
Wind
9.9 mph (WNW)
Dew Point
58°F
UV Index
0/10 (Low)
Visibility
6 mi

Hourly Forecast

Date & Time Thu, Oct 6
3:00 AM
Thu, Oct 6
4:00 AM
Thu, Oct 6
5:00 AM
Thu, Oct 6
6:00 AM
Thu, Oct 6
7:00 AM
Thu, Oct 6
8:00 AM
Thu, Oct 6
9:00 AM
Thu, Oct 6
10:00 AM
Thu, Oct 6
11:00 AM
Thu, Oct 6
12:00 PM
Thu, Oct 6
1:00 PM
Thu, Oct 6
2:00 PM
Thu, Oct 6
3:00 PM
Thu, Oct 6
4:00 PM
Thu, Oct 6
5:00 PM
Thu, Oct 6
6:00 PM
Thu, Oct 6
7:00 PM
Thu, Oct 6
8:00 PM
Thu, Oct 6
9:00 PM
Thu, Oct 6
10:00 PM
Thu, Oct 6
11:00 PM
Fri, Oct 7
12:00 AM
Fri, Oct 7
1:00 AM
Fri, Oct 7
2:00 AM
Fri, Oct 7
3:00 AM
Fri, Oct 7
4:00 AM
Fri, Oct 7
5:00 AM
Fri, Oct 7
6:00 AM
Fri, Oct 7
7:00 AM
Fri, Oct 7
8:00 AM
Fri, Oct 7
9:00 AM
Fri, Oct 7
10:00 AM
Fri, Oct 7
11:00 AM
Fri, Oct 7
12:00 PM
Fri, Oct 7
1:00 PM
Fri, Oct 7
2:00 PM
Fri, Oct 7
3:00 PM
Fri, Oct 7
4:00 PM
Fri, Oct 7
5:00 PM
Fri, Oct 7
6:00 PM
Fri, Oct 7
7:00 PM
Fri, Oct 7
8:00 PM
Fri, Oct 7
9:00 PM
Fri, Oct 7
10:00 PM
Fri, Oct 7
11:00 PM
Sat, Oct 8
12:00 AM
Sat, Oct 8
1:00 AM
Sat, Oct 8
2:00 AM
Condition
Clouds

Clouds

Clouds

Clouds

Clouds

Clouds

Clouds

Clouds

Clouds

Clouds

Clouds

Clouds

Clear

Clear

Clear

Clear

Clear

Clear

Clear

Clear

Clear

Clear

Clear

Clear

Clear

Clear

Clear

Clouds

Clouds

Clouds

Clear

Clear

Clear

Clear

Clear

Clear

Clear

Clear

Clear

Clear

Clear

Clear

Clear

Clouds

Clouds

Clouds

Clouds

Clouds
Temperature 62°F62°F62°F62°F61°F61°F62°F62°F64°F65°F65°F66°F66°F67°F67°F66°F65°F65°F64°F64°F63°F63°F64°F64°F63°F63°F63°F63°F62°F62°F64°F65°F66°F66°F67°F68°F68°F69°F69°F68°F67°F66°F66°F65°F65°F64°F64°F63°F
Feels Like 62°F62°F62°F61°F61°F61°F61°F62°F63°F64°F64°F65°F65°F66°F66°F65°F64°F64°F64°F63°F63°F63°F64°F63°F63°F63°F63°F63°F62°F62°F63°F64°F65°F66°F66°F67°F67°F68°F68°F67°F66°F65°F65°F64°F64°F64°F63°F63°F
Cloudiness 44%45%46%51%56%65%100%97%83%77%69%58%2%1%1%10%9%7%0%0%1%2%2%2%1%3%9%14%13%11%0%0%0%0%0%0%0%0%0%0%0%0%4%25%35%46%50%58%
Visibility 6 mi6 mi6 mi6 mi6 mi6 mi6 mi6 mi6 mi6 mi6 mi6 mi6 mi6 mi6 mi6 mi6 mi6 mi6 mi6 mi6 mi6 mi6 mi6 mi6 mi6 mi6 mi6 mi6 mi6 mi6 mi6 mi6 mi6 mi6 mi6 mi6 mi6 mi6 mi6 mi6 mi6 mi6 mi6 mi6 mi6 mi6 mi6 mi
Precipitation 0%0%0%0%0%0%0%0%0%0%0%0%0%0%0%0%0%0%0%0%0%0%0%0%0%0%0%0%0%0%0%0%0%0%0%0%0%0%0%0%0%0%0%0%0%0%0%0%
Humidity 85%84%83%81%79%78%74%72%67%63%60%57%55%54%55%59%59%60%65%71%75%79%82%82%83%84%85%84%84%82%77%73%69%64%60%57%55%54%52%55%55%55%57%61%66%73%75%74%
Dew Point 57°F58°F57°F56°F55°F54°F53°F53°F53°F52°F51°F50°F49°F50°F50°F52°F50°F51°F52°F54°F55°F57°F58°F58°F58°F58°F58°F58°F57°F57°F56°F56°F55°F54°F52°F51°F51°F51°F50°F51°F50°F49°F50°F51°F53°F55°F56°F55°F
Pressure 29.97"29.97"29.97"29.97"30"30"30.03"30.03"30.03"30.03"30.03"30"30"29.97"30"30"30"30"30"30.03"30.03"30"30"30"30"30"30"30.03"30.03"30.06"30.06"30.06"30.06"30.06"30.06"30.03"30.03"30.03"30.03"30.03"30.03"30.03"30.03"30.03"30.03"30.06"30.06"30.06"
Wind Speed 10.7 mph9.9 mph10.4 mph10 mph10.4 mph10.6 mph9.8 mph8.8 mph7.7 mph7.2 mph6.4 mph4.7 mph3.5 mph1.8 mph0.8 mph1.5 mph4.2 mph6.5 mph8.2 mph9.8 mph10 mph10.4 mph10.3 mph9.7 mph9.2 mph8.4 mph7.5 mph6.7 mph6.6 mph6.4 mph5.9 mph5.9 mph6.2 mph6 mph5.4 mph4.9 mph4 mph2.4 mph1 mph3 mph4.3 mph6.8 mph8.9 mph9.8 mph10.4 mph0.9 mph6.8 mph10.5 mph
Wind
Direction
300°
WNW
301°
WNW
301°
WNW
306°
NW
300°
WNW
304°
NW
308°
NW
309°
NW
311°
NW
306°
NW
307°
NW
314°
NW
329°
NNW
353°
N
273°
W
166°
SSE
154°
SSE
155°
SSE
165°
SSE
180°
S
187°
S
191°
S
203°
SSW
218°
SW
227°
SW
241°
WSW
260°
W
277°
W
283°
WNW
292°
WNW
295°
WNW
302°
WNW
312°
NW
312°
NW
311°
NW
314°
NW
319°
NW
330°
NNW
56°
NE
103°
ESE
133°
SE
133°
SE
145°
SE
157°
SSE
162°
SSE
139°
SE
12°
NNE

N

Daily Forecast

Date High Low Precip. Humidity
Today
Oct 6

Clouds
67 °F
61 °F
0%
63%
Friday
Oct 7

Clear
69 °F
62 °F
0%
64%
Saturday
Oct 8

Rain
63 °F
55 °F
20%
64%
Sunday
Oct 9

Clear
60 °F
55 °F
0%
49%
Monday
Oct 10

Clear
64 °F
57 °F
0%
65%
Tuesday
Oct 11

Clear
66 °F
60 °F
0%
63%
Wednesday
Oct 12

Clouds
67 °F
59 °F
0%
62%
Thursday
Oct 13

Clouds
69 °F
61 °F
0%
69%
Friday
Oct 14

Rain
65 °F
62 °F
100%
94%
Saturday
Oct 15

Rain
60 °F
56 °F
20%
47%
Sunday
Oct 16

Clear
61 °F
54 °F
0%
38%
Monday
Oct 17

Clouds
68 °F
59 °F
1%
74%
Tuesday
Oct 18

Rain
59 °F
49 °F
99%
67%
Wednesday
Oct 19

Clear
55 °F
45 °F
0%
49%
Thursday
Oct 20

Clear
53 °F
46 °F
0%
41%
Friday
Oct 21

Clear
57 °F
47 °F
0%
40%

Temperature 8-14 Day Outlook



Precipitation 8-14 Day Outlook




Quick Links
Chincoteague News
Chincoteague Photos
Chincoteague Videos




About Us
Contact Us
Site Map
Search Site
Advertise With Us
   
Chincoteague.USCoast.info
THE CHINCOTEAGUE WEBSITE

Copyright 2022, Coastal Town
Privacy    |    Legal